����������;��������(kWh)
2016-06-27 00:00;79,25
2016-06-27 00:15;82,95
2016-06-27 00:30;92,45
2016-06-27 00:45;84,4
2016-06-27 01:00;83,5
2016-06-27 01:15;77,35
2016-06-27 01:30;81,55
2016-06-27 01:45;75,8
2016-06-27 02:00;78,8
2016-06-27 02:15;80,7
2016-06-27 02:30;79,7
2016-06-27 02:45;81
2016-06-27 03:00;79,25
2016-06-27 03:15;78,25
2016-06-27 03:30;81,65
2016-06-27 03:45;78,95
2016-06-27 04:00;82,2
2016-06-27 04:15;80
2016-06-27 04:30;79,1
2016-06-27 04:45;81,45
2016-06-27 05:00;78,7
2016-06-27 05:15;76,35
2016-06-27 05:30;78,05
2016-06-27 05:45;82,4
2016-06-27 06:00;82,9
2016-06-27 06:15;77,75
2016-06-27 06:30;80,45
2016-06-27 06:45;82,65
2016-06-27 07:00;78,15
2016-06-27 07:15;82,7
2016-06-27 07:30;82,7
2016-06-27 07:45;147,4
2016-06-27 08:00;158,05
2016-06-27 08:15;154,35
2016-06-27 08:30;137
2016-06-27 08:45;166,25
2016-06-27 09:00;181,35
2016-06-27 09:15;195,8
2016-06-27 09:30;185,9
2016-06-27 09:45;190,3
2016-06-27 10:00;206,1
2016-06-27 10:15;212,65
2016-06-27 10:30;226,95
2016-06-27 10:45;245,1
2016-06-27 11:00;262,05
2016-06-27 11:15;260,6
2016-06-27 11:30;260,15
2016-06-27 11:45;260,7
2016-06-27 12:00;271,3
2016-06-27 12:15;275,3
2016-06-27 12:30;279,6
2016-06-27 12:45;280,35
2016-06-27 13:00;275,6
2016-06-27 13:15;279,9
2016-06-27 13:30;272,55
2016-06-27 13:45;272,05
2016-06-27 14:00;274,6
2016-06-27 14:15;272,2
2016-06-27 14:30;267,4
2016-06-27 14:45;264,8
2016-06-27 15:00;263,35
2016-06-27 15:15;260,4
2016-06-27 15:30;256,5
2016-06-27 15:45;249
2016-06-27 16:00;248,2
2016-06-27 16:15;239
2016-06-27 16:30;238,5
2016-06-27 16:45;229,9
2016-06-27 17:00;235,15
2016-06-27 17:15;227,8
2016-06-27 17:30;229,3
2016-06-27 17:45;225,9
2016-06-27 18:00;220,25
2016-06-27 18:15;218,7
2016-06-27 18:30;206,75
2016-06-27 18:45;187,85
2016-06-27 19:00;183,1
2016-06-27 19:15;166,4
2016-06-27 19:30;156,7
2016-06-27 19:45;155,8
2016-06-27 20:00;153,6
2016-06-27 20:15;138,5
2016-06-27 20:30;137,2
2016-06-27 20:45;129,15
2016-06-27 21:00;124,85
2016-06-27 21:15;117,1
2016-06-27 21:30;119,95
2016-06-27 21:45;115,35
2016-06-27 22:00;112,65
2016-06-27 22:15;110,1
2016-06-27 22:30;111,95
2016-06-27 22:45;109,6
2016-06-27 23:00;110,55
2016-06-27 23:15;105
2016-06-27 23:30;102,05
2016-06-27 23:45;108,85
2016-06-28 00:00;90,55
2016-06-28 00:15;91,55
2016-06-28 00:30;95
2016-06-28 00:45;96,65
2016-06-28 01:00;94,5
2016-06-28 01:15;92,7
2016-06-28 01:30;90,85
2016-06-28 01:45;90,5
2016-06-28 02:00;89,9
2016-06-28 02:15;87,3
2016-06-28 02:30;82,25
2016-06-28 02:45;83,45
2016-06-28 03:00;82,55
2016-06-28 03:15;85,05
2016-06-28 03:30;84,55
2016-06-28 03:45;81,95
2016-06-28 04:00;82,7
2016-06-28 04:15;78,5
2016-06-28 04:30;82,5
2016-06-28 04:45;81,45
2016-06-28 05:00;78,05
2016-06-28 05:15;78,65
2016-06-28 05:30;77,9
2016-06-28 05:45;82,15
2016-06-28 06:00;84,5
2016-06-28 06:15;95,2
2016-06-28 06:30;90,15
2016-06-28 06:45;88,2
2016-06-28 07:00;93,5
2016-06-28 07:15;99,3
2016-06-28 07:30;99,55
2016-06-28 07:45;156,75
2016-06-28 08:00;161,45
2016-06-28 08:15;139,85
2016-06-28 08:30;134,8
2016-06-28 08:45;145,6
2016-06-28 09:00;163,05
2016-06-28 09:15;174,55
2016-06-28 09:30;198,35
2016-06-28 09:45;202,75
2016-06-28 10:00;205,7
2016-06-28 10:15;228,25
2016-06-28 10:30;247,35
2016-06-28 10:45;257
2016-06-28 11:00;277,6
2016-06-28 11:15;269,6
2016-06-28 11:30;254,4
2016-06-28 11:45;283,3
2016-06-28 12:00;274,45
2016-06-28 12:15;284,85
2016-06-28 12:30;294,2
2016-06-28 12:45;282,7
2016-06-28 13:00;288,9
2016-06-28 13:15;266,9
2016-06-28 13:30;273,15
2016-06-28 13:45;278,4
2016-06-28 14:00;266,05
2016-06-28 14:15;278,4
2016-06-28 14:30;266,75
2016-06-28 14:45;252,6
2016-06-28 15:00;255,5
2016-06-28 15:15;233,8
2016-06-28 15:30;236,3
2016-06-28 15:45;237,25
2016-06-28 16:00;219
2016-06-28 16:15;220,9
2016-06-28 16:30;213,1
2016-06-28 16:45;211,35
2016-06-28 17:00;226,55
2016-06-28 17:15;204,75
2016-06-28 17:30;194,7
2016-06-28 17:45;197,55
2016-06-28 18:00;197,35
2016-06-28 18:15;205,5
2016-06-28 18:30;194,45
2016-06-28 18:45;177,25
2016-06-28 19:00;178,3
2016-06-28 19:15;160,35
2016-06-28 19:30;162,25
2016-06-28 19:45;157,3
2016-06-28 20:00;156,45
2016-06-28 20:15;144,75
2016-06-28 20:30;148,9
2016-06-28 20:45;146
2016-06-28 21:00;144,95
2016-06-28 21:15;137,75
2016-06-28 21:30;134,8
2016-06-28 21:45;136,6
2016-06-28 22:00;130,05
2016-06-28 22:15;125,6
2016-06-28 22:30;117,85
2016-06-28 22:45;116,2
2016-06-28 23:00;119,75
2016-06-28 23:15;112,2
2016-06-28 23:30;103
2016-06-28 23:45;105,45
2016-06-29 00:00;93,35
2016-06-29 00:15;93,1
2016-06-29 00:30;89,9
2016-06-29 00:45;91,95
2016-06-29 01:00;88,3
2016-06-29 01:15;90,8
2016-06-29 01:30;93,25
2016-06-29 01:45;93,7
2016-06-29 02:00;89,3
2016-06-29 02:15;85,8
2016-06-29 02:30;90,75
2016-06-29 02:45;91,2
2016-06-29 03:00;94,15
2016-06-29 03:15;92,15
2016-06-29 03:30;91,3
2016-06-29 03:45;93,15
2016-06-29 04:00;90,45
2016-06-29 04:15;91,05
2016-06-29 04:30;93,1
2016-06-29 04:45;90,25
2016-06-29 05:00;89,85
2016-06-29 05:15;91,2
2016-06-29 05:30;90,8
2016-06-29 05:45;94,75
2016-06-29 06:00;105,15
2016-06-29 06:15;114,3
2016-06-29 06:30;108,35
2016-06-29 06:45;109,6
2016-06-29 07:00;107,95
2016-06-29 07:15;115,15
2016-06-29 07:30;114,5
2016-06-29 07:45;179,75
2016-06-29 08:00;183,8
2016-06-29 08:15;152,3
2016-06-29 08:30;153,6
2016-06-29 08:45;147,05
2016-06-29 09:00;151,4
2016-06-29 09:15;175,2
2016-06-29 09:30;174,05
2016-06-29 09:45;187,6
2016-06-29 10:00;201,1
2016-06-29 10:15;201,45
2016-06-29 10:30;204,95
2016-06-29 10:45;229,8
2016-06-29 11:00;244,9
2016-06-29 11:15;247,15
2016-06-29 11:30;244,95
2016-06-29 11:45;268,9
2016-06-29 12:00;265,4
2016-06-29 12:15;268,95
2016-06-29 12:30;267,75
2016-06-29 12:45;271,3
2016-06-29 13:00;276,25
2016-06-29 13:15;286,45
2016-06-29 13:30;290,6
2016-06-29 13:45;277,1
2016-06-29 14:00;271,7
2016-06-29 14:15;263,35
2016-06-29 14:30;266,05
2016-06-29 14:45;264,55
2016-06-29 15:00;260,55
2016-06-29 15:15;253,75
2016-06-29 15:30;231,9
2016-06-29 15:45;211,85
2016-06-29 16:00;206,7
2016-06-29 16:15;203,5
2016-06-29 16:30;196,25
2016-06-29 16:45;191,35
2016-06-29 17:00;185
2016-06-29 17:15;176,75
2016-06-29 17:30;171,65
2016-06-29 17:45;173,4
2016-06-29 18:00;168,6
2016-06-29 18:15;173,15
2016-06-29 18:30;163,55
2016-06-29 18:45;162,3
2016-06-29 19:00;165,65
2016-06-29 19:15;144,95
2016-06-29 19:30;142,3
2016-06-29 19:45;141,3
2016-06-29 20:00;136,15
2016-06-29 20:15;128,65
2016-06-29 20:30;123,1
2016-06-29 20:45;115
2016-06-29 21:00;113,15
2016-06-29 21:15;113,3
2016-06-29 21:30;117,55
2016-06-29 21:45;113,2
2016-06-29 22:00;108,35
2016-06-29 22:15;103,45
2016-06-29 22:30;102
2016-06-29 22:45;106,6
2016-06-29 23:00;108,8
2016-06-29 23:15;102,45
2016-06-29 23:30;101,15
2016-06-29 23:45;95,8
2016-06-30 00:00;83,3
2016-06-30 00:15;81,7
2016-06-30 00:30;80,15
2016-06-30 00:45;79,75
2016-06-30 01:00;80,1
2016-06-30 01:15;83,4
2016-06-30 01:30;81,6
2016-06-30 01:45;79,25
2016-06-30 02:00;77,9
2016-06-30 02:15;79,95
2016-06-30 02:30;80,65
2016-06-30 02:45;81,6
2016-06-30 03:00;82,15
2016-06-30 03:15;79,7
2016-06-30 03:30;78,4
2016-06-30 03:45;79,85
2016-06-30 04:00;82,45
2016-06-30 04:15;78,6
2016-06-30 04:30;77,3
2016-06-30 04:45;77,45
2016-06-30 05:00;78,25
2016-06-30 05:15;80,25
2016-06-30 05:30;80,85
2016-06-30 05:45;81,3
2016-06-30 06:00;86,5
2016-06-30 06:15;88,55
2016-06-30 06:30;91,65
2016-06-30 06:45;98,05
2016-06-30 07:00;95,45
2016-06-30 07:15;100,35
2016-06-30 07:30;100,25
2016-06-30 07:45;106,85
2016-06-30 08:00;112,65
2016-06-30 08:15;127,45
2016-06-30 08:30;138,25
2016-06-30 08:45;150,1
2016-06-30 09:00;161
2016-06-30 09:15;238,3
2016-06-30 09:30;246,85
2016-06-30 09:45;235,5
2016-06-30 10:00;217,35
2016-06-30 10:15;219,7
2016-06-30 10:30;207,5
2016-06-30 10:45;245,1
2016-06-30 11:00;246,1
2016-06-30 11:15;246,55
2016-06-30 11:30;247,75
2016-06-30 11:45;253,65
2016-06-30 12:00;257,15
2016-06-30 12:15;265,5
2016-06-30 12:30;265,35
2016-06-30 12:45;245,2
2016-06-30 13:00;251,05
2016-06-30 13:15;239,4
2016-06-30 13:30;242,1
2016-06-30 13:45;245,5
2016-06-30 14:00;236,95
2016-06-30 14:15;240,65
2016-06-30 14:30;236,35
2016-06-30 14:45;227,7
2016-06-30 15:00;233,5
2016-06-30 15:15;237,3
2016-06-30 15:30;220,8
2016-06-30 15:45;207,05
2016-06-30 16:00;213,7
2016-06-30 16:15;210,55
2016-06-30 16:30;194,05
2016-06-30 16:45;208,1
2016-06-30 17:00;205,15
2016-06-30 17:15;200,05
2016-06-30 17:30;201,9
2016-06-30 17:45;195,05
2016-06-30 18:00;191,95
2016-06-30 18:15;188,25
2016-06-30 18:30;178,15
2016-06-30 18:45;158,4
2016-06-30 19:00;155,35
2016-06-30 19:15;144,6
2016-06-30 19:30;142,4
2016-06-30 19:45;142,45
2016-06-30 20:00;133,4
2016-06-30 20:15;135,8
2016-06-30 20:30;134,05
2016-06-30 20:45;134,1
2016-06-30 21:00;130,15
2016-06-30 21:15;127,1
2016-06-30 21:30;126,9
2016-06-30 21:45;119,55
2016-06-30 22:00;113,15
2016-06-30 22:15;113,2
2016-06-30 22:30;117,75
2016-06-30 22:45;115,3
2016-06-30 23:00;119,55
2016-06-30 23:15;116,85
2016-06-30 23:30;115,65
2016-06-30 23:45;115,1
2016-07-01 00:00;102,85
2016-07-01 00:15;102
2016-07-01 00:30;96,1
2016-07-01 00:45;95,35
2016-07-01 01:00;93,4
2016-07-01 01:15;89,4
2016-07-01 01:30;89,65
2016-07-01 01:45;85,8
2016-07-01 02:00;89,7
2016-07-01 02:15;91,45
2016-07-01 02:30;86,95
2016-07-01 02:45;88,75
2016-07-01 03:00;84,25
2016-07-01 03:15;87,25
2016-07-01 03:30;85,5
2016-07-01 03:45;84,85
2016-07-01 04:00;88,4
2016-07-01 04:15;85,45
2016-07-01 04:30;86,1
2016-07-01 04:45;83,45
2016-07-01 05:00;84,35
2016-07-01 05:15;88,3
2016-07-01 05:30;91,85
2016-07-01 05:45;95,15
2016-07-01 06:00;90,4
2016-07-01 06:15;98,05
2016-07-01 06:30;95,55
2016-07-01 06:45;96,8
2016-07-01 07:00;101,65
2016-07-01 07:15;108,85
2016-07-01 07:30;109,35
2016-07-01 07:45;173,2
2016-07-01 08:00;182,2
2016-07-01 08:15;155,55
2016-07-01 08:30;161,75
2016-07-01 08:45;151,8
2016-07-01 09:00;165,95
2016-07-01 09:15;183,55
2016-07-01 09:30;181,55
2016-07-01 09:45;194,15
2016-07-01 10:00;208,95
2016-07-01 10:15;206,15
2016-07-01 10:30;208,35
2016-07-01 10:45;223,9
2016-07-01 11:00;228,9
2016-07-01 11:15;235,4
2016-07-01 11:30;245,65
2016-07-01 11:45;276,3
2016-07-01 12:00;266,55
2016-07-01 12:15;267
2016-07-01 12:30;274,1
2016-07-01 12:45;273,9
2016-07-01 13:00;275,4
2016-07-01 13:15;278,5
2016-07-01 13:30;278,75
2016-07-01 13:45;275,2
2016-07-01 14:00;275
2016-07-01 14:15;276,4
2016-07-01 14:30;267,5
2016-07-01 14:45;258,25
2016-07-01 15:00;247,75
2016-07-01 15:15;239,55
2016-07-01 15:30;227,9
2016-07-01 15:45;227,05
2016-07-01 16:00;214,1
2016-07-01 16:15;204
2016-07-01 16:30;197,1
2016-07-01 16:45;208,05
2016-07-01 17:00;198
2016-07-01 17:15;189,1
2016-07-01 17:30;191,35
2016-07-01 17:45;168,5
2016-07-01 18:00;171,5
2016-07-01 18:15;169,8
2016-07-01 18:30;162,95
2016-07-01 18:45;155,25
2016-07-01 19:00;159,2
2016-07-01 19:15;145,3
2016-07-01 19:30;144,65
2016-07-01 19:45;145,45
2016-07-01 20:00;134,85
2016-07-01 20:15;130,85
2016-07-01 20:30;125,15
2016-07-01 20:45;118,75
2016-07-01 21:00;121,65
2016-07-01 21:15;118,3
2016-07-01 21:30;121,05
2016-07-01 21:45;118,05
2016-07-01 22:00;115
2016-07-01 22:15;113,1
2016-07-01 22:30;112,95
2016-07-01 22:45;111,45
2016-07-01 23:00;112,55
2016-07-01 23:15;110,25
2016-07-01 23:30;114,95
2016-07-01 23:45;120,3
2016-07-02 00:00;107,95
2016-07-02 00:15;99,8
2016-07-02 00:30;96,3
2016-07-02 00:45;92,35
2016-07-02 01:00;87,6
2016-07-02 01:15;87,8
2016-07-02 01:30;87,35
2016-07-02 01:45;86,2
2016-07-02 02:00;85,7
2016-07-02 02:15;85,8
2016-07-02 02:30;87,95
2016-07-02 02:45;85,75
2016-07-02 03:00;84,55
2016-07-02 03:15;85,5
2016-07-02 03:30;85,8
2016-07-02 03:45;87,35
2016-07-02 04:00;86,85
2016-07-02 04:15;83,9
2016-07-02 04:30;84
2016-07-02 04:45;82,9
2016-07-02 05:00;85,15
2016-07-02 05:15;87,6
2016-07-02 05:30;80,45
2016-07-02 05:45;87,05
2016-07-02 06:00;84,15
2016-07-02 06:15;85,75
2016-07-02 06:30;85,05
2016-07-02 06:45;87,75
2016-07-02 07:00;81,25
2016-07-02 07:15;83,35
2016-07-02 07:30;82,8
2016-07-02 07:45;80,9
2016-07-02 08:00;82,65
2016-07-02 08:15;85,55
2016-07-02 08:30;86,7
2016-07-02 08:45;84,4
2016-07-02 09:00;84,6
2016-07-02 09:15;88,6
2016-07-02 09:30;88,45
2016-07-02 09:45;84
2016-07-02 10:00;86,25
2016-07-02 10:15;87,4
2016-07-02 10:30;91,4
2016-07-02 10:45;155,4
2016-07-02 11:00;150,3
2016-07-02 11:15;116,5
2016-07-02 11:30;122,85
2016-07-02 11:45;121,45
2016-07-02 12:00;118,35
2016-07-02 12:15;106,25
2016-07-02 12:30;109,1
2016-07-02 12:45;106,75
2016-07-02 13:00;107,05
2016-07-02 13:15;115,8
2016-07-02 13:30;120,7
2016-07-02 13:45;121,1
2016-07-02 14:00;112,65
2016-07-02 14:15;107,05
2016-07-02 14:30;108
2016-07-02 14:45;110,15
2016-07-02 15:00;105,65
2016-07-02 15:15;107,05
2016-07-02 15:30;107,65
2016-07-02 15:45;106,8
2016-07-02 16:00;104,3
2016-07-02 16:15;104,45
2016-07-02 16:30;106,1
2016-07-02 16:45;110,35
2016-07-02 17:00;113,5
2016-07-02 17:15;100,2
2016-07-02 17:30;98,85
2016-07-02 17:45;97,1
2016-07-02 18:00;95,65
2016-07-02 18:15;104,2
2016-07-02 18:30;100,75
2016-07-02 18:45;102,5
2016-07-02 19:00;100,5
2016-07-02 19:15;93,7
2016-07-02 19:30;96,65
2016-07-02 19:45;93,45
2016-07-02 20:00;95,6
2016-07-02 20:15;94,3
2016-07-02 20:30;97,3
2016-07-02 20:45;99,15
2016-07-02 21:00;101,25
2016-07-02 21:15;98,95
2016-07-02 21:30;100
2016-07-02 21:45;98,9
2016-07-02 22:00;94,85
2016-07-02 22:15;90,55
2016-07-02 22:30;88
2016-07-02 22:45;86,95
2016-07-02 23:00;93,7
2016-07-02 23:15;90,8
2016-07-02 23:30;95,1
2016-07-02 23:45;94,85
2016-07-03 00:00;77,9
2016-07-03 00:15;76,8
2016-07-03 00:30;77,75
2016-07-03 00:45;78,35
2016-07-03 01:00;77,4
2016-07-03 01:15;78
2016-07-03 01:30;74,9
2016-07-03 01:45;76,9
2016-07-03 02:00;75,1
2016-07-03 02:15;75,6
2016-07-03 02:30;75,55
2016-07-03 02:45;78,45
2016-07-03 03:00;76,05
2016-07-03 03:15;75,65
2016-07-03 03:30;74,75
2016-07-03 03:45;74,35
2016-07-03 04:00;75,5
2016-07-03 04:15;77,95
2016-07-03 04:30;74,25
2016-07-03 04:45;74,3
2016-07-03 05:00;73,2
2016-07-03 05:15;73,6
2016-07-03 05:30;74,3
2016-07-03 05:45;74,85
2016-07-03 06:00;72,7
2016-07-03 06:15;69,25
2016-07-03 06:30;69,1
2016-07-03 06:45;71,75
2016-07-03 07:00;76,1
2016-07-03 07:15;77,25
2016-07-03 07:30;75,1
2016-07-03 07:45;75,5
2016-07-03 08:00;77,85
2016-07-03 08:15;75,05
2016-07-03 08:30;76,55
2016-07-03 08:45;76,8
2016-07-03 09:00;76,55
2016-07-03 09:15;77,1
2016-07-03 09:30;83,8
2016-07-03 09:45;84,95
2016-07-03 10:00;88,45
2016-07-03 10:15;87,1
2016-07-03 10:30;84,55
2016-07-03 10:45;88,55
2016-07-03 11:00;93,25
2016-07-03 11:15;93,35
2016-07-03 11:30;90,3
2016-07-03 11:45;89,2
2016-07-03 12:00;93,7
2016-07-03 12:15;89,95
2016-07-03 12:30;92,8
2016-07-03 12:45;96,4
2016-07-03 13:00;95,3
2016-07-03 13:15;94,2
2016-07-03 13:30;94,55
2016-07-03 13:45;92,95
2016-07-03 14:00;93,7
2016-07-03 14:15;96,75
2016-07-03 14:30;96,65
2016-07-03 14:45;99,1
2016-07-03 15:00;96,25
2016-07-03 15:15;97,55
2016-07-03 15:30;99,2
2016-07-03 15:45;97,3
2016-07-03 16:00;99,1
2016-07-03 16:15;95,2
2016-07-03 16:30;94,9
2016-07-03 16:45;98,6
2016-07-03 17:00;104,25
2016-07-03 17:15;99,4
2016-07-03 17:30;95,95
2016-07-03 17:45;99,85
2016-07-03 18:00;92,1
2016-07-03 18:15;107,2
2016-07-03 18:30;102,6
2016-07-03 18:45;103,4
2016-07-03 19:00;105,5
2016-07-03 19:15;99,85
2016-07-03 19:30;104,65
2016-07-03 19:45;105,95
2016-07-03 20:00;104,75
2016-07-03 20:15;98,65
2016-07-03 20:30;101,9
2016-07-03 20:45;96,75
2016-07-03 21:00;97,7
2016-07-03 21:15;97,4
2016-07-03 21:30;103,55
2016-07-03 21:45;95,1
2016-07-03 22:00;91,1
2016-07-03 22:15;91,85
2016-07-03 22:30;89,25
2016-07-03 22:45;91,45
2016-07-03 23:00;98,8
2016-07-03 23:15;94,65
2016-07-03 23:30;93,95
2016-07-03 23:45;94,8

